Regional Weather Roundup
Issued by NWS

Home | Current Version | Previous Version | Graphics & Text | Print | Product List | Glossary On
Versions: 1 2 3 4 5 6 7 8 9 10 11 12 13 14 15 16 17 18 19 20 21 22 23 24 25 26 27 28 29 30 31 32 33 34 35 36 37 38 39 40 41 42 43 44 45 46 47 48 49 50
000
ASUS45 KBOU 211107
RWRCO

WEATHER ROUNDUP FOR COLORADO
NATIONAL WEATHER SERVICE DENVER/BOULDER CO
400 AM MST SUN DEC 21 2014

NOTE: "FAIR" INDICATES FEW OR NO CLOUDS BELOW 12000 FEET WITH NO
SIGNIFICANT WEATHER AND/OR OBSTRUCTIONS TO VISIBILITY.

COZ001>005-013-030-031-211200-
...NORTHWEST COLORADO...

CITY           SKY/WX    TMP DP  RH WIND       PRES   REMARKS
CRAIG          CLOUDY    24  22  91 CALM      29.96F
HAYDEN         CLOUDY    27  23  86 E7        29.95F WCI  19
MEEKER         CLOUDY    32  25  75 W6        29.99F WCI  26
MOUNT WERNER   NOT AVBL
STEAMBOAT SPGS CLOUDY    25  24  96 CALM      29.95F
WALDEN         CLOUDY    28  19  69 S15G22    29.88F WCI  17
$$

COZ006>008-011-211200-
...WEST CENTRAL VALLEYS...

CITY           SKY/WX    TMP DP  RH WIND       PRES   REMARKS
GRAND JUNCTION CLOUDY    31  30  96 NE3       30.05F
MONTROSE       CLOUDY    30  27  88 E7        30.07F WCI  23
EAGLE          CLOUDY    28  27  93 E5        30.00F WCI  23
RIFLE          CLOUDY    30  27  88 S5        30.02F WCI  25
DELTA          CLOUDY    33  30  88 NE6       30.07F WCI  28
NUCLA          MOCLDY    30  28  93 E5        30.10F WCI  25
$$

COZ017>023-064>068-211200-
...SOUTHWEST COLORADO...

CITY           SKY/WX    TMP DP  RH WIND       PRES   REMARKS
DURANGO        CLEAR     23  21  92 NE5       30.06F WCI  17
CORTEZ         CLEAR     24  22  91 NE6       30.08F WCI  17
PAGOSA SPRINGS CLOUDY    28  27  96 CALM      30.05F
TELLURIDE      CLOUDY    28  24  84 CALM      30.08F
WOLF CREEK PAS MOCLDY    14  14 100 MISG      30.02F FOG
$$

COZ009-010-012-014-032>034-037-058>063-211200-
...CENTRAL COLORADO...

CITY           SKY/WX    TMP DP  RH WIND       PRES   REMARKS
ASPEN          MOCLDY    19  16  88 SW7       29.99F WCI  10
BUENA VISTA    CLEAR     31  15  51 NW10G17   29.90F WCI  22
COPPER MTN     CLOUDY    19  14  79 W9G18     29.95F WCI   9
BERTHOUD PASS  CLOUDY    10   5  79 MISG      29.88S
COTTONWOOD PAS MOCLDY    30  12  47 W16G36    29.89F WCI  19
GUNNISON       CLOUDY    21  16  79 CALM      30.05F
KREMMLING      MOCLDY    28  21  74 W6        29.97F WCI  22
LEADVILLE      MOCLDY    21  13  71 N9G20     29.95F WCI  11
MONARCH PASS   CLOUDY    14  12  92 MISG      30.03F
SALIDA         CLEAR     36  17  45 SW20G30   29.98F
SUNLIGHT       CLOUDY   N/A N/A N/A SW3       29.97F
WILKERSON PASS PTCLDY    19  10  68 W18G35    29.87F WCI   4
$$

COZ069>075-211200-
...SAN LUIS VALLEY/SANGRE DE CRISTO MOUNTAINS...

CITY           SKY/WX    TMP DP  RH WIND       PRES   REMARKS
ALAMOSA        PTCLDY     9   4  80 CALM      30.00F
LA VETA PASS   CLEAR     19  16  86 MISG      29.90F
SAGUACHE       CLOUDY    30  19  64 CALM      29.98F
$$

COZ035-036-038>040-211200-
...NORTHERN COLORADO FRONT RANGE...

CITY           SKY/WX    TMP DP  RH WIND       PRES   REMARKS
DENVER INTL AP PTCLDY    25  19  78 S9        29.80F WCI  15
DMNS CITY PARK   N/A     30  19  64 SE5       29.79F WCI  25
AURORA         PTCLDY    28  19  68 S10       29.81F WCI  19
FRONT RANGE AP PTCLDY    28  23  80 S8        29.81F WCI  20
ERIE MUNI ARPT   N/A     20  18  89 NW3       29.78F
BOULDER MUN AP PTCLDY    30  21  69 N5        29.78S WCI  25
CENTENNIAL     PTCLDY    30  19  63 S8        29.81F WCI  22
BROOMFIELD     PTCLDY    43  18  36 SW13G23   29.79S
FORT COLLINS   PTCLDY    25  16  68 N3        29.80F
LONGMONT       PTCLDY    24  18  78 CALM      29.81F
$$

COZ041-046-047-076>085-087-088-211200-
...PIKES PEAK/PALMER DIVIDE AND SOUTHERN FOOTHILLS...

CITY           SKY/WX    TMP DP  RH WIND       PRES   REMARKS
COLO. SPRINGS  PTCLDY    27  16  63 NE9       29.83F WCI  18
A. F. ACADEMY  CLEAR     30  14  50 VRB7      29.82F WCI  24
ELLICOTT       NOT AVBL
FALCON         CLEAR     26  15  62 NW7       29.84F WCI  18
FORT CARSON    CLEAR     28  18  65 CALM      29.81F
LIMON          PTCLDY    24  19  81 N3        29.82F
MONUMENT HILL  CLEAR     23  16  74 S7        29.82F WCI  15
TRINIDAD       CLEAR     27  17  66 W10       29.87F WCI  17
$$

COZ042>045-048>051-090-091-211200-
...NORTHEAST COLORADO...

CITY           SKY/WX    TMP DP  RH WIND       PRES   REMARKS
GREELEY ARPT   MOCLDY    18   9  68 N3        29.79F
AKRON          PTCLDY    25  18  74 SW9       29.79F WCI  15
BURLINGTON     PTCLDY    29  25  85 W9        29.82F WCI  20
WRAY           MOCLDY    30  27  88 W8        29.83S WCI  22
STERLING       PTCLDY    19  18  93 SW8       29.81F WCI   9
HOLYOKE        MOCLDY    32  27  80 W6        29.81F WCI  26
FORT MORGAN    PTCLDY    18  14  84 W7        29.81F WCI   9
$$

COZ086-089-092>099-211200-
...SOUTHEAST COLORADO...

CITY           SKY/WX    TMP DP  RH WIND       PRES   REMARKS
PUEBLO         CLEAR     21  15  78 CALM      29.84F
LA JUNTA       CLEAR     26  22  84 W8        29.85F WCI  18
LAMAR          CLEAR     23  21  92 SW7       29.83F WCI  15
SPRINGFIELD      N/A     29  23  78 W8        29.82F WCI  21
$$


USA.gov is the U.S. government's official web portal to all federal, state and local government web resources and services.